Weather reports worldwide

Advertisment
Norderney, Germany (10113): temperature & dewpoint: 26.10.2020 02:00:00 - 01.11.2020 02:00:00 (CET)Norderney, Germany (10113): temperature 5cm & temperature -5cm: 26.10.2020 02:00:00 - 01.11.2020 02:00:00 (CET)Norderney, Germany (10113): temperature -20cm & temperature -100cm: 26.10.2020 02:00:00 - 01.11.2020 02:00:00 (CET)Norderney, Germany (10113): wind speed & gusts: 26.10.2020 02:00:00 - 01.11.2020 02:00:00 (CET)Norderney, Germany (10113): wind direction: 26.10.2020 02:00:00 - 01.11.2020 02:00:00 (CET)Norderney, Germany (10113): reduced air pressure: 26.10.2020 02:00:00 - 01.11.2020 02:00:00 (CET)Norderney, Germany (10113): visibility: 26.10.2020 02:00:00 - 01.11.2020 02:00:00 (CET)Norderney, Germany (10113): sunshine duration: 26.10.2020 02:00:00 - 01.11.2020 02:00:00 (CET)Norderney, Germany (10113): precipitation: 26.10.2020 02:00:00 - 01.11.2020 02:00:00 (CET)
Date & Time tt [°C] td [°C] tt 5cm [°C] tt -5cm [°C] tt -20cm [°C] tt -100cm [°C] ff [km/h] ff [kn] fx [km/h] fx [kn] dd ppp [hPa] vv [km] sd [min] rr [mm]
01.11.2020 02:00:00 11,8 10,2 10,7 10,9 12,0 12,6 20 11 29 16 SW 1011,3 19 0 0,0
01.11.2020 01:00:00 12,3 9,5 11,2 11,3 12,1 12,6 19 11 41 22 SW 1011,3 23 0 0,0
01.11.2020 00:00:00 13,1 10,9 11,9 11,9 12,1 12,5 29 15 45 25 SW 1010,5 29 0 0,0
31.10.2020 23:00:00 12,7 11,3 12,0 11,8 12,2 12,5 24 13 45 25 S 1009,9 29 0 0,0
31.10.2020 22:00:00 12,1 11,1 11,7 11,8 12,2 12,5 30 16 48 26 S 1010,1 9 0 0,3
31.10.2020 21:00:00 12,4 10,5 11,6 11,8 12,3 12,5 26 14 45 24 S 1010,1 13 0 1,0
31.10.2020 20:00:00 12,6 10,3 12,2 11,7 12,4 12,5 26 14 41 22 SSE 1010,4 47 0 0,0
31.10.2020 19:00:00 12,7 10,5 12,0 11,9 12,6 12,5 24 13 42 23 SSE 1011,3 44 0 0,0
31.10.2020 18:00:00 12,7 10,6 12,0 12,3 12,7 12,5 20 11 37 20 SSE 1012,3 40 0 0,0
31.10.2020 17:00:00 13,3 10,7 12,6 12,8 12,8 12,5 24 13 40 21 S 1013,2 40 0 0,0
31.10.2020 16:00:00 13,6 10,5 13,0 13,1 12,9 12,5 24 13 41 22 SSE 1013,7 52 0 0,0
31.10.2020 15:00:00 13,6 10,6 13,0 13,5 12,9 12,5 22 12 36 19 S 1015,0 43 0 0,0
31.10.2020 14:00:00 13,5 11,5 13,2 13,7 12,9 12,5 19 10 34 19 S 1016,1 32 0 0,0
31.10.2020 13:00:00 13,2 11,8 13,0 13,9 12,8 12,5 23 12 36 19 S 1016,8 28 0 0,0
31.10.2020 12:00:00 13,3 12,3 13,6 14,1 12,6 12,5 24 13 35 19 S 1017,5 28 6 0,0
31.10.2020 11:00:00 13,1 12,4 13,4 13,3 12,4 12,4 21 12 34 19 S 1018,5 12 0 0,1
31.10.2020 10:00:00 13,0 12,7 13,2 13,0 12,3 12,4 15 8 27 14 SSW 1019,2 2,2 0 0,2
31.10.2020 09:00:00 13,0 12,7 13,1 12,8 12,3 12,4 15 8 25 13 S 1019,5 2,0 0 0,0
31.10.2020 08:00:00 13,0 12,7 13,0 12,6 12,3 12,4 15 8 25 14 S 1019,5 4,2 0 0,0
31.10.2020 07:00:00 13,3 13,2 13,2 12,5 12,3 12,4 14 8 31 17 SSW 1019,4 4,2 0 0,0
31.10.2020 06:00:00 12,6 12,4 12,6 12,5 12,3 12,4 9 5 18 10 SSW 1019,8 0,3 0 0,1
31.10.2020 05:00:00 12,9 12,8 12,8 12,5 12,3 12,4 13 7 20 11 SW 1019,8 2,8 0 0,0
31.10.2020 04:00:00 12,2 12,1 12,3 12,5 12,3 12,4 10 5 23 13 W 1019,9 0,4 0 0,0
31.10.2020 03:00:00 13,0 12,3 12,8 12,5 12,3 12,4 14 8 27 14 SW 1019,5 11 0 0,0
31.10.2020 02:00:00 13,3 12,5 12,9 12,6 12,3 12,4 16 9 32 17 WSW 1019,4 10 0 0,0
31.10.2020 01:00:00 13,5 12,7 13,1 12,6 12,2 12,4 21 12 39 21 WSW 1019,2 12 0 0,0
31.10.2020 00:00:00 13,5 12,7 13,0 12,7 12,2 12,4 21 12 38 20 WSW 1019,1 13 0 0,0
30.10.2020 23:00:00 13,5 12,7 13,2 12,7 12,2 12,4 23 12 41 22 WSW 1018,6 8 0 0,0
30.10.2020 22:00:00 13,3 12,7 13,0 12,6 12,2 12,4 19 10 35 19 SW 1018,0 6 0 0,0
30.10.2020 21:00:00 13,1 12,5 12,9 12,6 12,2 12,4 23 12 34 18 SW 1017,3 11 0 0,4
30.10.2020 20:00:00 13,2 12,7 13,1 12,7 12,1 12,4 22 12 37 20 WSW 1017,1 3,2 0 0,2
30.10.2020 19:00:00 13,3 12,7 13,1 12,7 12,1 12,4 22 12 40 22 SW 1016,8 2,4 0 0,4
30.10.2020 18:00:00 13,3 12,6 13,1 12,7 12,1 12,4 22 12 38 21 WSW 1016,2 3,3 0 0,4
30.10.2020 17:00:00 13,3 12,6 13,1 12,8 12,0 12,4 27 15 44 24 WSW 1015,7 5 0 0,2
30.10.2020 16:00:00 13,5 12,5 13,1 12,9 12,0 12,4 26 14 46 25 WSW 1015,2 9 0 0,0
30.10.2020 15:00:00 13,4 12,6 13,2 12,8 11,9 12,4 22 12 44 24 WSW 1014,8 8 0 0,7
30.10.2020 14:00:00 13,4 12,4 13,1 12,7 11,7 12,4 28 15 44 24 WSW 1014,3 12 0 0,1
30.10.2020 13:00:00 13,2 12,2 13,0 12,6 11,6 12,4 23 13 43 23 WSW 1013,7 15 0 0,0
30.10.2020 12:00:00 13,7 11,9 13,1 12,5 11,5 12,4 27 15 42 23 WSW 1013,3 17 0 0,0
30.10.2020 11:00:00 13,3 11,9 12,8 12,3 11,4 12,4 26 14 49 26 WSW 1012,9 17 0 0,0
30.10.2020 10:00:00 13,1 11,9 12,7 11,9 11,3 12,4 26 14 44 24 SW 1012,2 15 0 0,0
30.10.2020 09:00:00 12,7 12,0 12,5 11,8 11,2 12,4 29 15 43 23 SW 1011,4 4,8 0 0,3
30.10.2020 08:00:00 12,5 11,9 12,3 11,7 11,1 12,4 25 14 37 20 SW 1011,0 3,0 0 0,8
30.10.2020 07:00:00 12,5 12,0 12,3 11,6 11,0 12,4 22 12 38 21 SW 1010,6 2,8 0 1,0
30.10.2020 06:00:00 12,6 11,9 12,2 11,5 10,9 12,4 24 13 44 24 SW 1010,1 3,5 0 0,3
30.10.2020 05:00:00 12,9 11,6 12,3 11,4 10,8 12,4 26 14 45 24 SW 1009,8 13 0 0,0
30.10.2020 04:00:00 12,5 11,8 12,2 11,3 10,7 12,4 28 15 47 25 SW 1009,8 8 0 0,5
30.10.2020 03:00:00 12,2 11,6 11,9 11,1 10,6 12,4 25 13 39 21 SW 1009,7 7 0 0,4
30.10.2020 02:00:00 12,2 11,5 11,9 10,8 10,5 12,4 22 12 40 22 SW 1009,7 3,2 0 0,1
30.10.2020 01:00:00 11,7 11,2 11,5 10,5 10,4 12,4 22 12 36 20 SSW 1009,7 10 0 0,9
30.10.2020 00:00:00 10,8 10,3 10,7 10,2 10,4 12,4 24 13 39 21 S 1009,8 2,9 0 0,9
29.10.2020 23:00:00 10,5 9,7 10,3 10,1 10,3 12,4 25 13 41 22 S 1010,3 4,1 0 0,9
29.10.2020 22:00:00 10,1 9,4 9,9 9,9 10,4 12,4 23 12 35 19 S 1010,8 6 0 1,8
29.10.2020 21:00:00 9,9 9,1 9,6 9,9 10,4 12,4 21 11 37 20 S 1011,8 7 0 0,9
29.10.2020 20:00:00 9,9 8,9 9,6 9,9 10,5 12,5 22 12 36 20 S 1012,6 10 0 1,0
29.10.2020 19:00:00 10,1 8,6 9,5 9,9 10,5 12,5 20 11 37 20 SSW 1013,1 13 0 0,5
29.10.2020 18:00:00 10,7 7,6 9,9 10,1 10,6 12,5 20 11 31 17 SSW 1013,2 18 0 0,0
29.10.2020 17:00:00 10,9 7,7 10,2 10,4 10,7 12,5 20 11 35 19 SW 1013,0 25 0 0,0
29.10.2020 16:00:00 11,0 7,3 10,6 10,9 10,7 12,5 23 12 39 21 SW 1012,9 26 0 0,0
29.10.2020 15:00:00 11,2 7,6 11,0 11,4 10,6 12,5 23 12 37 20 SW 1012,7 19 0 0,0
29.10.2020 14:00:00 11,5 7,1 11,1 12,0 10,4 12,5 26 14 45 24 WSW 1012,3 18 49 0,0
29.10.2020 13:00:00 11,8 7,2 12,5 11,7 10,0 12,5 33 18 50 27 W 1011,5 18 53 0,0
29.10.2020 12:00:00 11,6 7,5 11,8 10,2 9,7 12,5 31 17 57 31 W 1010,8 13 16 1,5
29.10.2020 11:00:00 10,7 7,7 12,1 9,5 9,6 12,5 26 14 49 26 W 1010,1 12 7 0,3
29.10.2020 10:00:00 11,2 6,5 11,2 9,1 9,5 12,5 30 16 51 28 W 1009,1 19 17 0,0
29.10.2020 09:00:00 10,1 6,5 8,4 8,7 9,6 12,5 31 17 59 32 WNW 1008,1 15 2 0,5
29.10.2020 08:00:00 11,0 6,3 9,0 8,3 9,7 12,5 30 16 53 28 W 1006,9 15 0 1,5
29.10.2020 07:00:00 9,9 5,7 8,8 8,5 9,8 12,5 28 15 50 27 WSW 1005,7 19 0 0,0
29.10.2020 06:00:00 9,3 6,1 8,0 8,6 9,9 12,5 30 16 50 27 SW 1004,6 24 0 0,6
29.10.2020 05:00:00 9,9 5,6 8,3 8,9 10,0 12,5 25 14 54 29 WSW 1003,9 23 0 2,0
29.10.2020 04:00:00 9,7 7,0 8,6 8,9 10,1 12,5 21 12 46 25 SW 1003,1 23 0 0,5
29.10.2020 03:00:00 9,4 6,5 8,5 9,2 10,1 12,5 27 15 44 24 SW 1002,9 18 0 0,0
29.10.2020 02:00:00 10,1 7,7 9,2 9,3 10,2 12,5 31 17 50 27 SW 1002,0 34 0 0,2
29.10.2020 01:00:00 9,6 8,2 9,0 9,3 10,3 12,5 23 12 49 26 SSW 1001,8 17 0 0,7
29.10.2020 00:00:00 9,8 7,5 9,4 9,4 10,3 12,5 24 13 44 24 S 1001,9 38 0 0,0
28.10.2020 23:00:00 9,8 7,3 9,5 9,3 10,5 12,5 28 15 43 23 S 1002,1 46 0 0,0
28.10.2020 22:00:00 9,8 6,7 9,3 9,6 10,6 12,5 26 14 39 21 S 1002,7 52 0 0,0
28.10.2020 21:00:00 10,2 6,8 9,8 9,8 10,7 12,6 21 11 37 20 SSW 1003,3 62 0 0,0
28.10.2020 20:00:00 10,2 7,6 9,8 9,9 10,8 12,6 24 13 43 23 S 1003,5 44 0 0,0
28.10.2020 19:00:00 10,4 7,6 10,0 9,9 11,0 12,6 23 13 41 22 SSW 1003,8 41 0 0,0
28.10.2020 18:00:00 10,4 7,0 9,7 10,4 11,2 12,6 21 11 47 26 SSW 1003,8 49 0 0,0
28.10.2020 17:00:00 11,3 7,3 10,6 11,1 11,3 12,6 26 14 44 24 SSW 1003,6 41 0 0,0
28.10.2020 16:00:00 11,8 7,5 11,3 11,7 11,3 12,6 24 13 42 23 SSW 1003,7 37 10 0,0
28.10.2020 15:00:00 12,3 7,4 12,4 12,6 11,1 12,6 25 13 48 26 SSW 1003,7 46 50 0,0
28.10.2020 14:00:00 12,5 7,4 14,0 12,8 10,8 12,6 28 15 47 26 SSW 1003,7 42 59 0,0
28.10.2020 13:00:00 12,2 7,8 14,6 12,3 10,4 12,6 29 15 45 24 SSW 1003,7 32 60 0,0
28.10.2020 12:00:00 11,5 7,6 13,3 11,3 10,1 12,6 26 14 50 27 S 1003,5 43 60 0,0
28.10.2020 11:00:00 11,2 6,9 12,5 10,3 9,9 12,6 27 15 49 27 S 1003,1 39 59 0,0
28.10.2020 10:00:00 10,6 7,6 10,7 9,5 9,8 12,6 29 15 44 24 S 1002,9 26 23 0,0
28.10.2020 09:00:00 10,3 8,3 9,8 9,1 9,8 12,6 23 13 37 20 S 1003,0 21 0 0,0
28.10.2020 08:00:00 10,3 8,2 9,5 8,9 9,8 12,6 22 12 40 22 S 1002,4 22 0 0,0
28.10.2020 07:00:00 10,4 7,7 9,2 8,6 9,9 12,6 21 11 36 20 SSW 1001,5 26 0 0,0
28.10.2020 06:00:00 10,4 7,5 8,7 8,7 10,1 12,7 22 12 39 21 SSW 1001,0 26 0 0,0
28.10.2020 05:00:00 10,5 8,0 8,8 9,1 10,2 12,7 22 12 39 21 SW 1000,3 28 0 0,0
28.10.2020 04:00:00 10,9 9,3 9,6 9,5 10,2 12,7 26 14 40 22 SW 999,7 37 0 0,0
28.10.2020 03:00:00 11,0 9,6 9,9 9,8 10,3 12,7 26 14 44 24 SW 999,2 41 0 0,0
28.10.2020 02:00:00 10,2 9,4 9,9 9,8 10,2 12,7 25 14 54 29 SSW 998,2 22 0 0,2
28.10.2020 01:00:00 10,1 8,8 9,7 9,7 10,3 12,7 36 19 58 32 S 997,5 31 0 0,5
28.10.2020 00:00:00 9,7 8,6 9,3 9,6 10,3 12,7 35 19 59 32 S 997,4 8 0 0,3
27.10.2020 23:00:00 9,4 8,2 9,0 9,6 10,4 12,7 30 16 55 30 S 997,9 8 0 0,0
27.10.2020 22:00:00 9,7 7,5 8,9 9,7 10,5 12,7 29 16 53 28 S 998,3 14 0 1,3
27.10.2020 21:00:00 10,8 6,4 10,4 9,8 10,5 12,7 29 16 51 28 S 998,8 41 0 0,0
27.10.2020 20:00:00 10,6 6,7 10,2 9,8 10,6 12,7 29 15 47 25 S 999,4 45 0 0,0
27.10.2020 19:00:00 10,3 7,0 9,8 10,0 10,7 12,8 26 14 49 26 S 1000,0 43 0 0,0
27.10.2020 18:00:00 10,2 7,3 9,7 10,4 10,8 12,8 27 14 46 25 S 1000,7 46 0 0,0
27.10.2020 17:00:00 10,5 6,9 10,3 10,8 10,9 12,8 27 14 47 25 S 1000,9 52 0 0,0
27.10.2020 16:00:00 10,7 6,8 10,4 11,3 10,8 12,8 29 16 52 28 S 1001,1 46 20 0,0
27.10.2020 15:00:00 11,1 6,8 12,3 11,5 10,7 12,8 32 18 50 27 S 1001,3 36 24 0,0
27.10.2020 14:00:00 10,5 7,1 11,1 11,6 10,4 12,8 31 17 50 27 S 1001,5 32 17 0,0
27.10.2020 13:00:00 10,6 7,2 11,1 11,6 10,1 12,8 27 15 50 27 S 1001,8 28 20 0,0
27.10.2020 12:00:00 10,8 7,5 12,2 11,3 9,8 12,8 31 17 46 25 S 1001,9 22 60 0,0
27.10.2020 11:00:00 10,7 7,2 12,4 10,0 9,5 12,8 23 12 49 26 SSW 1001,6 29 44 0,0
27.10.2020 10:00:00 9,9 7,6 10,4 9,0 9,3 12,9 25 14 49 27 SSW 1001,4 19 10 0,0
27.10.2020 09:00:00 9,2 7,5 9,1 8,5 9,3 12,9 27 15 45 24 SSW 1001,2 16 14 0,0
27.10.2020 08:00:00 9,1 7,4 8,3 8,0 9,4 12,9 25 13 47 25 S 1000,7 20 0 0,0
27.10.2020 07:00:00 8,9 7,1 8,1 7,9 9,4 12,9 23 12 44 24 S 1000,5 26 0 0,0
27.10.2020 06:00:00 8,7 7,0 7,9 8,0 9,5 12,9 27 15 41 22 S 1000,2 25 0 0,0
27.10.2020 05:00:00 9,0 7,2 8,1 8,1 9,6 12,9 24 13 47 26 SSW 999,6 27 0 0,0
27.10.2020 04:00:00 9,9 6,3 8,6 8,4 9,7 12,9 26 14 40 22 SW 999,0 50 0 0,0
27.10.2020 03:00:00 9,3 7,4 8,2 8,4 9,8 12,9 23 12 48 26 SSW 999,2 27 0 0,0
27.10.2020 02:00:00 9,5 7,4 8,5 8,4 9,9 12,9 24 13 43 23 SSW 999,3 33 0 0,0
27.10.2020 01:00:00 9,4 6,9 8,3 8,6 10,1 12,9 22 12 44 24 SSW 999,1 43 0 0,0
27.10.2020 00:00:00 9,8 7,2 8,9 8,8 10,2 12,9 27 15 50 27 S 998,6 35 0 0,0
26.10.2020 23:00:00 9,8 6,8 8,9 8,8 10,3 12,9 28 15 46 25 S 999,1 43 0 0,0
26.10.2020 22:00:00 9,7 6,7 8,9 8,9 10,4 12,9 26 14 40 22 S 999,2 46 0 0,0
26.10.2020 21:00:00 9,7 6,8 8,7 9,1 10,6 12,9 26 14 44 24 S 998,9 44 0 0,0
26.10.2020 20:00:00 9,9 6,7 9,0 9,4 10,8 13,0 26 14 44 24 S 998,9 44 0 0,0
26.10.2020 19:00:00 10,0 6,4 9,0 9,7 11,0 13,0 22 12 37 20 S 998,8 56 0 0,0
26.10.2020 18:00:00 10,1 6,2 9,3 10,2 11,2 13,0 19 11 38 20 S 999,1 62 0 0,0
26.10.2020 17:00:00 10,8 6,6 9,9 11,0 11,3 13,0 23 13 38 20 S 999,1 49 28 0,0
26.10.2020 16:00:00 11,0 6,5 10,8 11,3 11,2 13,0 24 13 40 22 S 998,8 54 0 0,0
26.10.2020 15:00:00 11,0 6,5 11,0 11,8 11,1 13,0 22 12 41 22 S 998,9 60 11 0,0
26.10.2020 14:00:00 11,4 6,7 13,2 12,0 10,9 13,0 26 14 40 22 S 998,6 59 33 0,0
26.10.2020 13:00:00 11,0 6,5 12,1 11,5 10,6 13,0 24 13 43 23 SSW 999,2 42 16 0,0
26.10.2020 12:00:00 10,6 7,2 11,3 10,4 10,5 13,0 23 13 40 21 S 999,4 41 1 0,0
26.10.2020 11:00:00 10,2 7,2 10,5 10,0 10,5 13,0 20 11 40 22 SSW 999,1 47 0 0,0
26.10.2020 10:00:00 10,2 7,5 10,3 9,9 10,4 13,0 21 11 38 20 S 998,8 38 0 0,0
26.10.2020 09:00:00 10,2 7,7 9,8 9,7 10,4 13,0 26 14 41 22 S 999,2 45 0 0,0
26.10.2020 08:00:00 10,1 8,0 9,9 9,5 10,5 13,0 22 12 40 22 SSW 998,8 32 0 0,0
26.10.2020 07:00:00 9,8 8,2 9,2 9,5 10,5 13,0 22 12 - - S 998,2 36 0 0,0
26.10.2020 06:00:00 10,1 8,6 9,7 9,6 10,6 13,0 18 10 31 17 S 998,6 32 0 0,0
26.10.2020 05:00:00 10,0 8,6 9,5 9,6 10,6 13,0 17 9 30 16 S 998,7 29 0 0,0
26.10.2020 04:00:00 10,0 8,8 9,4 9,7 10,7 13,0 18 10 29 15 S 998,5 31 0 0,0
26.10.2020 03:00:00 10,1 8,7 9,7 9,6 10,7 13,0 16 9 33 18 S 998,9 28 0 0,0
26.10.2020 02:00:00 10,2 8,6 9,7 9,6 10,8 13,0 21 11 35 19 S 999,2 37 0 0,0

tt = temperature
td = dewpoint
tt 5cm = temperature 5cm
tt -5cm = temperature -5cm
tt -20cm = temperature -20cm
tt -100cm = temperature -100cm
ff = wind speed
fx = gusts
dd = wind direction
ppp = reduced air pressure
vv = visibility
sd = sunshine duration
rr = precipitation

Next stations